Temp
60 61 61 60 60 60 61 60 59 59 58 58 58 58 58 59 59 58 57 57 57 58 58 60 59 59 59 55 59 66 65 66 69 69 66 65 62 61 57 58 59 57 58 60 62 61 62
60 60 60 60 60 60 60 59 58 58 58 58 57 57 57 58 58 57 57 57 57 57 59 60 59 59 55 51 66 64 63 65 66 67 65 66 63 63 59 57 57 58 58 59 60 63 61
60 60 60 59 59 59 59 58 58 58 57 57 57 57 57 57 57 57 57 56 56 57 59 59 58 57 50 55 63 62 61 63 65 65 63 66 65 63 61 56 60 59 54 57 60 60 60
60 60 60 59 59 58 58 58 57 58 57 57 57 56 56 56 56 56 56 55 56 57 58 59 57 55 48 62 62 60 60 61 62 64 64 65 65 62 60 61 57 54 52 50 57 59 58
59 59 59 59 58 58 57 57 57 57 58 57 57 56 55 55 55 55 55 55 56 57 57 57 53 50 49 63 60 64 64 63 61 62 63 68 65 58 58 51 48 48 46 45 51 58 57
59 59 59 59 58 58 58 57 57 57 57 57 56 56 55 55 55 54 55 55 55 55 55 57 55 48 56 57 63 63 64 64 62 60 60 59 56 52 50 49 44 44 43 45 45 54 55
59 59 59 59 58 58 58 58 57 57 57 56 56 55 55 55 55 54 51 49 47 46 48 48 50 49 53 58 62 62 64 63 63 58 51 54 49 45 50 50 49 47 45 44 48 53 49
59 59 58 59 58 59 59 59 57 57 57 56 55 55 55 55 55 54 50 46 48 48 41 48 48 49 53 56 51 57 64 57 55 49 52 49 44 50 51 49 48 47 44 45 48 52 51
58 58 59 59 59 59 58 58 57 57 56 55 55 55 54 54 54 49 46 47 54 53 40 45 48 47 50 53 48 50 59 56 52 48 48 46 50 52 50 47 45 45 43 44 44 49 51
57 57 57 58 58 58 57 57 57 56 56 55 55 54 53 53 48 46 45 52 51 53 36 43 45 50 51 51 46 56 57 56 52 48 48 47 53 49 47 47 48 40 49 48 45 43 38
57 57 57 57 57 57 56 56 56 56 56 55 54 54 53 53 47 45 50 50 51 48 28 46 46 59 54 48 52 53 59 56 48 47 49 47 47 46 45 47 50 45 50 48 46 43 40
56 56 57 57 57 56 56 56 55 55 55 55 54 54 53 48 47 49 50 51 49 33 26 44 48 46 45 49 52 54 54 58 55 49 49 48 53 51 51 51 50 52 48 45 43 42 33
55 56 56 56 56 56 56 55 55 55 55 54 54 54 51 49 45 50 51 49 32 27 45 42 44 46 46 46 48 50 47 46 44 39 39 45 47 51 53 47 49 49 43 34 32 31 32
55 55 55 55 56 55 55 55 55 55 54 54 54 53 51 50 49 50 49 39 23 38 38 47 47 46 44 47 48 48 45 43 47 46 39 38 37 46 50 49 45 43 43 35 26 28 34
54 54 55 55 55 55 55 55 54 54 54 53 51 46 47 47 49 49 43 28 33 36 43 42 46 43 43 47 47 47 45 44 48 49 42 38 38 49 49 50 52 42 39 45 37 35 31
53 54 54 54 54 54 54 54 54 54 54 52 44 43 43 47 48 46 37 33 36 42 45 45 39 43 38 40 42 43 43 47 46 48 50 45 38 46 49 51 49 46 48 37 35 26 25
52 52 53 53 54 54 54 54 54 54 53 51 42 37 42 47 47 39 31 33 38 45 46 42 39 39 40 39 41 41 42 47 49 48 49 46 41 41 46 43 43 41 40 40 40 35 28
52 52 52 52 53 53 54 54 54 54 52 50 39 31 42 47 33 32 32 37 43 42 46 44 44 41 39 40 39 40 40 45 49 48 43 47 41 35 40 46 47 45 43 43 34 32 34
51 51 52 52 52 52 53 53 53 53 52 43 35 33 42 44 28 28 36 37 40 39 40 41 39 43 44 39 35 39 42 49 49 46 42 42 37 33 36 40 43 37 42 43 41 40 35
51 50 50 51 51 52 52 51 52 53 52 45 34 28 33 38 36 34 32 33 34 40 40 40 39 41 40 38 41 38 39 45 46 47 47 45 38 35 31 37 41 36 39 42 40 33 36
50 50 50 50 49 50 51 52 52 51 52 42 36 32 35 27 30 34 35 35 33 32 40 41 37 38 37 34 36 36 39 41 45 47 45 42 34 37 39 40 41 40 40 40 37 40 34
49 49 49 49 49 49 50 51 52 51 51 42 31 32 35 32 36 32 33 33 33 35 37 36 36 39 38 34 37 36 39 40 39 43 40 39 33 35 34 39 39 36 39 40 40 40 40
48 49 48 48 49 50 50 51 50 51 49 38 39 39 37 33 32 31 32 34 35 37 39 41 39 37 36 39 43 44 44 45 43 41 38 37 34 32 28 35 32 28 36 38 40 42 41
48 48 48 49 49 49 50 49 49 49 48 39 39 38 33 28 32 32 34 35 34 36 34 39 41 36 43 48 46 44 42 41 41 41 42 35 32 33 29 29 22 39 38 39 38 40 40
47 48 48 49 49 49 49 49 48 48 48 41 40 38 34 28 34 34 34 35 36 36 34 37 40 43 47 43 35 31 33 32 36 39 40 41 36 30 27 27 33 37 34 32 33 36 39
47 47 48 48 48 48 49 49 49 48 48 41 40 42 38 30 30 37 34 35 31 31 33 36 44 46 43 36 32 25 24 31 30 34 41 39 39 31 28 23 21 32 35 39 38 29 35
47 47 48 48 48 48 48 48 48 48 48 42 39 43 38 30 34 37 32 32 37 35 31 35 36 37 42 32 28 26 27 36 28 30 30 31 30 28 29 25 31 38 36 39 28 31 34
46 46 47 47 48 48 48 48 48 48 48 44 39 43 39 32 35 39 40 35 35 36 30 36 35 35 32 29 29 30 29 32 32 33 32 32 28 27 28 24 23 36 35 32 34 32 35
46 44 45 46 47 47 47 48 48 47 47 45 37 42 42 36 34 41 43 43 42 41 35 36 34 34 35 32 32 32 28 29 31 27 34 29 34 30 32 32 32 37 32 33 35 34 32
MSLP
1018.37 1018.35 1018.64 1018.96 1019.29 1019.55 1019.75 1019.89 1020.17 1020.37 1020.44 1020.66 1020.85 1021.00 1020.98 1020.90 1020.88 1020.84 1020.50 1020.38 1020.39 1020.27 1019.69 1019.68 1019.36 1018.96 1018.50 1018.15 1016.43 1015.67 1015.58 1015.39 1015.03 1015.00 1015.07 1015.23 1015.11 1015.10 1015.30 1015.37 1015.34 1015.27 1015.37 1015.17 1015.15 1015.04 1014.76
1018.10 1018.26 1018.58 1018.96 1019.09 1019.41 1019.55 1019.96 1020.22 1020.45 1020.56 1020.77 1020.93 1021.17 1021.24 1021.12 1020.67 1020.76 1020.48 1020.58 1020.29 1019.93 1019.64 1019.74 1019.53 1019.04 1019.24 1017.88 1015.59 1015.95 1015.97 1015.60 1015.37 1015.20 1015.41 1015.55 1015.40 1015.42 1015.59 1015.62 1015.62 1015.46 1015.45 1015.22 1014.88 1014.57 1014.66
1018.07 1018.31 1018.25 1018.87 1019.02 1019.40 1019.54 1019.89 1020.24 1020.44 1020.57 1020.94 1020.97 1020.94 1021.40 1021.29 1020.75 1020.65 1020.50 1020.33 1020.29 1019.75 1019.38 1019.61 1019.67 1019.27 1019.33 1016.64 1015.65 1015.98 1015.91 1016.00 1015.54 1015.58 1015.84 1015.88 1015.77 1015.67 1015.88 1015.88 1016.03 1015.70 1015.46 1015.16 1014.53 1014.46 1014.47
1017.71 1018.34 1018.10 1018.56 1018.91 1019.33 1019.64 1019.80 1020.08 1020.30 1020.65 1021.02 1021.03 1021.00 1021.35 1021.30 1020.72 1020.49 1020.89 1020.30 1019.96 1019.60 1019.48 1019.41 1019.70 1019.70 1018.06 1015.96 1015.82 1015.91 1015.79 1015.57 1015.58 1015.80 1015.90 1016.10 1015.99 1016.10 1016.03 1016.16 1016.24 1016.01 1015.98 1015.35 1014.96 1014.68 1014.72
1017.65 1018.11 1018.20 1018.60 1018.83 1019.20 1019.39 1019.81 1019.86 1019.85 1020.55 1020.78 1021.10 1020.81 1021.06 1021.30 1020.89 1020.69 1020.92 1020.65 1019.98 1019.32 1019.48 1019.81 1019.96 1019.89 1017.11 1015.59 1015.79 1015.30 1015.36 1015.29 1015.56 1015.89 1015.98 1015.94 1015.98 1016.37 1016.50 1016.43 1016.58 1016.66 1016.01 1015.90 1015.42 1015.25 1015.01
1017.06 1017.57 1018.02 1018.28 1018.80 1019.12 1019.37 1019.68 1019.80 1019.74 1020.09 1020.44 1020.70 1020.91 1021.09 1020.81 1020.91 1020.80 1020.95 1020.68 1020.18 1019.59 1019.96 1019.87 1019.99 1019.72 1016.53 1016.04 1015.41 1015.12 1015.20 1015.23 1015.40 1015.70 1016.01 1016.21 1016.31 1016.75 1016.92 1016.78 1016.47 1016.48 1016.52 1016.38 1016.13 1015.69 1015.30
1017.05 1017.12 1017.70 1018.13 1018.30 1018.77 1019.25 1019.58 1019.62 1019.67 1019.87 1020.67 1020.26 1020.94 1020.53 1020.98 1021.02 1020.83 1020.84 1020.58 1020.64 1020.29 1020.27 1018.83 1018.54 1017.64 1016.60 1016.40 1015.69 1014.93 1015.05 1015.15 1015.12 1015.80 1016.07 1016.34 1016.44 1016.25 1016.09 1016.55 1016.72 1016.74 1016.69 1016.57 1016.36 1016.06 1015.89
1016.38 1016.83 1017.34 1017.70 1017.79 1018.44 1018.81 1019.15 1019.37 1019.53 1020.22 1020.27 1020.44 1020.52 1020.72 1020.82 1020.86 1020.84 1021.15 1020.94 1020.86 1020.89 1020.01 1017.96 1017.85 1017.59 1016.90 1017.04 1016.20 1015.47 1015.15 1015.36 1015.32 1015.63 1016.16 1016.61 1016.29 1016.33 1016.54 1016.77 1017.03 1016.87 1016.69 1016.41 1016.25 1015.87 1015.69
1016.28 1016.34 1016.76 1016.94 1017.32 1017.82 1018.42 1018.68 1018.88 1019.41 1020.02 1020.11 1020.27 1020.33 1020.78 1020.82 1020.70 1021.17 1021.51 1020.75 1020.59 1020.60 1020.19 1017.38 1017.15 1017.34 1016.68 1017.02 1016.13 1015.40 1015.30 1015.20 1015.32 1015.76 1015.92 1015.96 1015.87 1015.92 1016.40 1016.59 1016.67 1016.81 1016.70 1016.35 1016.28 1015.92 1015.57
1015.59 1016.05 1016.37 1016.36 1016.92 1017.27 1017.94 1018.40 1018.96 1018.96 1019.41 1019.83 1020.10 1020.26 1020.26 1020.66 1021.36 1021.48 1021.06 1020.70 1020.73 1020.31 1019.88 1017.34 1016.92 1016.47 1016.43 1016.34 1015.94 1015.23 1015.08 1015.17 1015.34 1015.42 1015.94 1015.97 1015.48 1015.80 1016.10 1016.03 1016.34 1016.54 1016.15 1016.33 1016.22 1016.11 1015.65
1015.14 1015.50 1015.58 1015.89 1016.44 1016.93 1017.42 1017.92 1018.75 1018.90 1019.32 1019.54 1019.93 1020.01 1020.30 1020.42 1021.27 1021.40 1021.10 1020.59 1020.70 1020.16 1018.97 1016.65 1016.11 1015.89 1015.58 1016.07 1015.76 1015.24 1015.06 1014.99 1015.02 1015.18 1015.78 1015.37 1015.41 1015.46 1015.43 1015.38 1015.88 1015.92 1016.05 1016.29 1016.24 1016.21 1016.03
1014.65 1014.93 1015.09 1015.49 1015.88 1016.49 1016.90 1017.56 1018.07 1018.65 1019.03 1019.36 1019.77 1020.11 1020.13 1020.63 1021.21 1020.99 1020.68 1020.71 1020.78 1020.36 1017.74 1015.60 1015.24 1015.51 1015.58 1015.28 1015.06 1015.34 1015.15 1014.92 1015.12 1015.30 1015.45 1015.48 1015.45 1015.29 1015.05 1015.07 1015.34 1015.74 1016.01 1016.32 1016.63 1016.45 1015.74
1013.77 1014.20 1014.66 1015.09 1015.46 1016.08 1016.39 1016.94 1017.60 1018.09 1018.59 1019.03 1019.30 1020.01 1020.37 1020.41 1021.00 1020.72 1020.23 1020.66 1021.04 1019.30 1016.55 1015.81 1015.21 1015.08 1014.96 1014.84 1014.77 1015.08 1015.12 1015.10 1014.97 1015.38 1015.34 1015.27 1014.97 1014.75 1014.83 1015.22 1015.49 1015.78 1016.25 1016.32 1016.34 1016.29 1015.38
1013.20 1013.56 1014.01 1014.42 1014.83 1015.49 1015.92 1016.63 1017.08 1017.63 1018.30 1018.73 1019.31 1019.58 1020.16 1020.38 1020.66 1020.64 1020.44 1020.69 1020.40 1017.70 1016.63 1015.90 1015.17 1015.09 1014.73 1014.56 1014.37 1014.70 1015.09 1014.93 1014.95 1014.88 1015.32 1014.99 1014.71 1014.39 1014.48 1014.50 1014.81 1015.52 1015.86 1015.94 1015.60 1015.82 1015.54
1012.80 1013.14 1013.45 1013.81 1014.28 1014.82 1015.48 1016.11 1016.83 1017.34 1017.97 1018.56 1019.42 1020.17 1020.28 1020.33 1020.56 1020.94 1020.86 1020.31 1018.28 1017.46 1016.53 1015.90 1015.20 1015.07 1014.81 1014.46 1014.57 1014.80 1015.00 1014.70 1014.37 1014.33 1014.79 1014.85 1014.67 1014.11 1014.12 1014.20 1014.68 1015.47 1015.63 1015.60 1015.65 1016.17 1015.75
1012.43 1012.76 1013.04 1013.43 1013.82 1014.37 1014.85 1015.55 1016.34 1016.97 1017.61 1018.48 1019.37 1020.14 1020.47 1020.30 1020.44 1021.10 1020.98 1019.29 1018.04 1017.35 1016.54 1015.97 1015.62 1015.39 1015.27 1015.09 1015.06 1015.05 1014.94 1014.58 1014.30 1014.47 1014.73 1014.78 1014.56 1014.27 1014.08 1014.29 1014.76 1014.84 1015.10 1015.68 1016.00 1015.83 1015.06
1011.68 1012.30 1012.52 1013.00 1013.33 1013.82 1014.38 1014.89 1015.74 1016.55 1017.22 1018.09 1019.31 1020.32 1020.00 1020.03 1020.65 1021.19 1020.11 1018.89 1018.07 1017.41 1016.80 1016.65 1016.26 1016.12 1015.97 1015.78 1015.61 1015.45 1014.99 1014.69 1014.47 1014.84 1014.94 1015.29 1015.47 1014.96 1014.74 1014.47 1014.29 1015.03 1015.04 1015.30 1015.54 1015.89 1015.07
1011.12 1011.49 1012.02 1012.41 1012.96 1013.35 1013.74 1014.49 1015.07 1016.01 1016.89 1017.70 1018.91 1020.22 1020.27 1020.22 1021.08 1020.61 1019.19 1018.77 1018.09 1017.59 1017.02 1016.92 1016.80 1016.56 1016.49 1016.45 1016.28 1015.94 1015.38 1014.86 1014.83 1015.00 1015.25 1015.21 1015.33 1015.20 1014.85 1014.66 1014.74 1014.53 1014.22 1014.46 1014.84 1014.97 1015.05
1010.68 1010.92 1011.45 1011.92 1012.47 1012.88 1013.27 1013.92 1014.55 1015.45 1016.20 1017.54 1018.79 1019.89 1020.27 1019.97 1020.06 1019.78 1019.06 1018.73 1018.34 1017.90 1017.57 1017.39 1017.22 1017.02 1016.83 1016.87 1016.93 1016.34 1015.89 1015.43 1015.11 1015.49 1015.71 1016.00 1015.56 1015.19 1014.81 1014.97 1014.74 1015.09 1014.41 1014.21 1014.32 1014.26 1013.60
1010.11 1010.68 1010.92 1011.40 1011.93 1012.36 1012.78 1013.53 1014.00 1014.82 1015.72 1016.88 1018.55 1019.47 1019.76 1019.17 1018.92 1018.94 1018.87 1018.68 1018.44 1018.12 1017.96 1017.84 1017.73 1017.53 1017.23 1016.90 1016.95 1016.61 1016.13 1015.83 1015.78 1015.89 1016.04 1016.15 1015.97 1015.76 1015.16 1014.32 1014.37 1014.43 1014.07 1013.86 1013.94 1013.74 1013.03
1009.80 1010.12 1010.58 1010.66 1011.41 1012.08 1012.37 1012.69 1013.25 1014.12 1014.68 1016.14 1017.25 1017.74 1017.59 1017.77 1018.29 1018.61 1018.65 1018.23 1017.82 1018.19 1018.13 1017.82 1017.63 1017.71 1017.65 1017.32 1017.02 1016.70 1016.69 1016.53 1016.19 1016.07 1016.14 1016.39 1015.98 1015.82 1015.11 1014.54 1014.34 1013.93 1013.64 1013.44 1013.38 1012.87 1012.81
1009.36 1009.55 1009.92 1010.48 1010.67 1011.62 1011.97 1011.98 1012.34 1013.22 1014.26 1014.92 1016.28 1016.80 1017.30 1017.35 1017.78 1018.39 1018.18 1017.23 1017.68 1017.85 1018.09 1017.71 1017.48 1017.45 1017.41 1017.07 1017.00 1016.74 1016.93 1016.88 1016.40 1016.28 1016.31 1016.71 1016.23 1015.82 1014.90 1014.51 1014.18 1013.73 1013.22 1012.99 1012.83 1012.63 1012.35
1008.70 1008.92 1009.34 1009.80 1010.23 1010.54 1011.34 1011.25 1011.78 1012.26 1013.36 1013.63 1014.96 1015.65 1015.85 1016.84 1017.21 1017.64 1016.92 1017.09 1017.28 1017.93 1017.54 1017.53 1017.56 1017.51 1017.14 1017.03 1016.88 1016.78 1016.76 1016.64 1016.31 1016.21 1016.48 1016.72 1016.52 1016.19 1014.81 1014.71 1014.62 1013.98 1011.86 1012.30 1012.11 1012.00 1012.20
1008.06 1008.42 1008.71 1009.09 1009.32 1010.12 1010.53 1010.83 1011.31 1011.72 1011.89 1013.71 1013.91 1014.65 1015.58 1016.24 1016.55 1016.35 1016.55 1017.02 1017.24 1017.59 1017.41 1017.09 1017.28 1017.29 1017.00 1016.94 1016.79 1016.72 1016.49 1016.13 1015.85 1015.33 1015.81 1015.97 1016.22 1016.15 1015.02 1015.44 1014.31 1012.03 1012.14 1012.32 1012.33 1012.03 1012.40
1007.41 1007.80 1008.07 1008.27 1008.65 1009.25 1009.64 1010.28 1010.89 1011.42 1011.61 1012.82 1013.39 1013.82 1014.88 1015.64 1015.82 1016.16 1016.27 1016.50 1016.95 1017.33 1017.34 1017.12 1016.83 1016.69 1016.83 1016.91 1017.05 1016.66 1015.99 1015.68 1014.13 1013.81 1014.06 1014.51 1015.23 1015.41 1015.12 1014.48 1013.37 1012.24 1012.66 1012.91 1012.80 1012.27 1012.52
1006.76 1007.03 1007.23 1007.70 1008.21 1008.60 1009.03 1009.41 1010.19 1010.79 1011.56 1012.46 1013.26 1013.49 1014.19 1015.28 1015.41 1015.61 1015.99 1016.22 1016.50 1017.00 1016.98 1016.30 1016.27 1015.86 1016.44 1016.68 1016.95 1016.22 1015.46 1014.53 1013.64 1013.13 1013.03 1013.80 1014.14 1014.88 1014.69 1014.00 1013.09 1012.12 1012.70 1013.03 1013.41 1013.41 1013.42
1005.87 1006.26 1006.68 1007.05 1007.49 1007.95 1008.43 1008.95 1009.60 1010.33 1011.05 1012.25 1013.01 1013.48 1014.47 1015.20 1015.25 1015.20 1015.49 1015.81 1016.16 1016.52 1016.44 1016.21 1016.09 1015.98 1015.79 1015.75 1015.86 1015.58 1014.74 1014.16 1013.49 1012.82 1013.11 1013.40 1013.57 1013.35 1013.46 1013.46 1012.71 1012.48 1013.30 1013.75 1014.29 1014.28 1014.41
1005.34 1005.78 1006.09 1006.49 1006.78 1007.25 1007.90 1008.53 1009.26 1010.03 1010.89 1011.74 1012.77 1013.41 1014.16 1014.91 1015.18 1014.97 1015.17 1015.43 1015.79 1016.05 1016.29 1016.01 1015.91 1015.25 1015.68 1015.09 1014.84 1014.56 1014.06 1013.41 1012.94 1012.37 1012.38 1012.54 1012.60 1012.70 1013.40 1013.51 1013.04 1012.89 1014.08 1014.20 1014.01 1014.76 1015.20
1004.46 1005.10 1005.67 1005.91 1006.42 1006.84 1007.52 1008.31 1009.20 1009.95 1010.69 1011.48 1012.88 1013.46 1014.18 1015.07 1015.34 1014.91 1014.78 1014.99 1015.30 1015.51 1016.20 1015.92 1015.53 1015.20 1014.36 1014.53 1014.30 1014.11 1013.72 1013.41 1012.66 1012.22 1012.26 1012.22 1011.54 1011.96 1012.59 1012.41 1012.74 1012.95 1013.75 1014.26 1014.68 1015.10 1016.09
Wind_Speed
4 7 7 7 6 4 2 4 3 3 4 3 4 4 4 4 5 6 6 6 6 7 6 6 9 13 5 4 8 1 8 8 2 2 3 1 2 2 2 1 2 3 2 4 5 8 6
9 10 10 8 8 6 5 4 3 3 4 4 3 3 4 5 5 6 6 7 5 5 5 6 8 9 1 4 2 4 6 4 5 3 3 2 2 1 3 1 2 0 3 8 4 12 5
10 9 9 7 8 6 6 4 4 4 4 3 2 3 6 7 7 8 8 7 7 4 2 4 6 2 1 13 2 5 3 1 1 3 2 2 4 2 1 1 2 4 6 7 4 1 2
10 9 9 9 9 8 6 4 4 4 3 1 2 3 6 7 8 9 10 7 5 5 2 0 3 1 9 1 3 8 2 3 2 3 3 3 3 2 0 1 4 2 1 3 2 4 3
11 10 8 8 9 9 7 5 4 4 5 4 3 3 5 7 8 7 7 5 1 3 3 1 1 1 9 5 2 2 2 3 6 4 4 1 2 2 0 3 2 2 3 2 6 5 6
16 15 13 12 10 8 8 7 6 5 5 6 5 2 4 5 7 6 6 4 4 3 1 1 1 1 4 2 2 2 2 0 3 8 5 3 4 2 2 4 5 1 2 2 3 4 11
16 15 15 13 12 11 9 8 7 7 5 8 6 0 3 5 6 3 4 3 4 1 2 7 2 3 3 9 4 3 2 4 4 2 4 3 5 10 13 8 3 3 3 7 8 9 5
16 16 16 16 15 14 12 11 7 6 9 9 7 2 2 4 5 3 2 2 3 2 9 10 12 9 3 2 6 2 1 4 4 5 6 3 8 12 3 6 6 9 9 11 7 6 7
16 16 16 16 16 16 16 14 11 10 10 9 7 4 2 4 3 4 1 2 1 3 3 8 4 4 3 8 8 7 5 4 4 6 8 7 2 5 8 5 8 6 8 9 8 7 6
17 17 17 16 15 14 14 14 13 13 11 11 10 6 3 3 4 1 2 4 4 3 4 5 3 3 4 3 3 5 4 4 5 12 7 6 5 6 7 6 8 6 11 11 8 8 4
16 18 17 16 14 12 13 14 12 11 11 12 10 8 4 5 2 0 2 5 2 2 3 2 3 3 5 2 1 1 3 1 7 6 6 5 5 5 8 10 8 6 5 6 7 8 5
17 16 16 16 16 15 13 14 15 13 11 10 10 8 8 4 1 3 5 5 2 6 8 1 5 4 3 2 0 3 2 1 3 4 1 3 1 4 6 5 8 2 1 2 3 3 7
17 18 18 17 17 17 14 14 16 13 11 11 12 10 5 3 2 3 1 2 4 4 4 1 0 4 3 3 2 3 4 4 4 5 4 2 7 4 4 5 3 5 3 3 3 3 5
15 16 18 19 16 16 14 15 15 14 13 12 11 11 2 2 1 4 1 2 3 3 4 2 2 3 2 4 2 4 5 5 4 2 3 3 3 6 5 8 4 7 7 5 5 4 3
13 15 16 17 17 18 17 16 16 16 14 12 14 2 2 1 3 2 1 3 7 6 2 0 1 1 1 1 2 2 4 4 6 10 5 4 5 1 4 3 5 4 6 2 4 1 5
12 13 13 15 16 18 19 17 17 17 16 17 4 3 2 4 5 2 3 7 5 4 1 2 5 1 2 2 2 2 2 2 1 2 4 3 8 5 2 4 2 6 6 3 2 5 7
11 14 14 14 16 16 21 17 17 16 17 16 4 3 2 5 3 1 8 8 3 3 2 3 0 1 1 1 1 2 2 1 3 3 3 1 2 2 1 6 10 4 4 2 2 3 4
15 15 14 16 17 19 20 19 18 18 21 12 4 3 1 7 4 3 13 5 2 2 4 4 2 2 3 3 2 2 4 1 3 3 8 4 4 5 8 0 4 3 5 8 7 7 6
15 15 14 15 18 20 19 19 19 20 25 6 5 3 3 4 8 6 6 7 5 1 3 4 4 5 4 5 3 5 6 3 6 2 1 2 3 6 5 2 2 6 11 12 5 5 16
15 17 14 11 13 17 19 17 16 20 25 6 5 5 4 4 2 13 7 12 8 4 8 1 1 3 3 3 4 3 2 2 1 1 6 4 4 8 12 11 1 7 9 11 11 6 12
17 17 17 14 12 17 19 23 25 26 28 7 4 4 4 8 14 8 11 5 17 10 7 8 5 12 4 4 3 9 4 3 2 4 2 5 11 10 13 15 13 15 13 12 15 17 12
18 17 18 19 19 20 23 22 24 23 28 7 6 5 3 4 10 16 10 10 17 5 8 7 13 5 13 16 17 9 10 9 9 3 4 2 5 3 13 11 13 17 16 14 16 15 19
18 18 19 19 19 19 24 21 23 23 22 4 3 2 5 7 7 11 16 18 11 10 8 11 9 7 11 10 10 11 12 11 11 11 7 5 4 4 15 4 2 9 21 19 17 18 16
18 19 20 20 18 23 24 20 19 24 19 4 3 4 4 5 9 11 10 13 16 14 12 7 7 12 11 2 3 3 7 11 14 15 13 9 6 6 9 3 10 6 1 3 12 13 9
19 19 19 18 19 21 22 24 23 24 19 7 2 4 3 4 8 10 7 7 4 4 7 12 13 15 7 5 4 6 6 6 14 20 18 18 12 7 6 8 11 11 6 7 7 5 9
20 20 18 18 19 19 20 23 22 24 23 4 1 3 3 6 7 7 7 7 5 4 6 7 10 10 9 4 7 8 8 4 4 3 7 14 15 10 5 6 9 2 3 4 3 7 6
18 19 20 19 19 19 19 21 24 22 21 11 3 3 4 3 3 8 5 7 4 4 4 4 3 2 11 8 8 8 11 4 10 9 5 6 5 17 13 7 8 3 8 4 4 3 8
15 16 17 19 18 17 17 17 21 25 24 9 3 8 5 2 3 3 4 4 2 5 8 2 1 6 4 9 7 7 7 8 6 3 6 11 6 5 6 7 12 11 6 8 3 4 7
21 22 19 20 19 17 17 18 21 20 20 12 3 3 4 1 1 2 10 8 6 8 0 3 4 2 1 3 4 2 4 3 6 8 4 7 7 6 9 6 1 8 2 4 4 7 6
Wind_Direction
208 162 146 147 142 142 140 118 99 96 90 81 67 45 21 5 349 337 339 343 340 330 341 326 335 334 356 359 255 360 20 354 21 31 67 59 67 102 174 12 311 208 314 322 306 293 266
188 179 163 167 159 163 147 132 116 116 111 110 80 19 351 337 345 327 333 330 332 337 352 322 336 339 357 293 103 37 3 354 34 43 58 38 99 94 101 141 261 122 288 298 293 287 280
190 176 163 179 168 167 153 154 152 144 118 120 97 50 346 341 343 332 331 325 315 309 293 329 334 19 198 246 40 332 329 269 139 69 69 30 39 99 165 231 319 327 315 320 284 13 57
186 196 182 188 173 172 167 171 177 166 161 171 69 22 353 343 345 342 330 318 275 261 196 123 359 11 249 238 300 298 207 254 217 185 176 298 336 75 232 91 9 308 77 299 61 328 41
193 192 185 187 173 176 172 187 189 176 210 208 117 32 7 345 349 0 345 335 55 82 104 101 16 349 268 316 286 35 178 95 107 125 176 353 96 70 48 73 342 355 267 207 318 14 26
196 192 190 188 187 183 184 193 201 190 215 149 105 19 357 355 346 2 341 325 343 37 335 233 205 255 286 302 321 81 193 216 101 124 113 128 82 133 103 161 261 222 242 223 259 311 327
217 202 200 200 194 195 202 215 206 213 182 141 121 315 27 342 335 23 1 352 0 314 260 217 202 272 288 298 290 63 185 153 123 96 159 168 189 206 221 201 125 108 271 282 272 272 284
207 206 208 203 201 208 205 202 211 215 174 151 136 141 11 346 345 97 47 80 122 215 299 238 251 269 279 13 341 241 196 180 157 175 131 129 240 227 170 182 226 254 272 273 290 267 285
220 211 207 206 208 210 204 199 187 177 168 154 142 150 14 341 34 53 304 223 184 42 262 294 188 238 218 178 217 246 199 158 162 174 186 193 211 145 182 186 218 238 242 255 265 307 271
214 219 222 213 211 214 209 204 194 174 178 167 155 154 113 11 49 279 266 299 284 165 9 270 234 258 152 163 262 211 226 167 192 216 163 233 234 156 161 219 192 244 230 246 267 308 294
220 214 211 206 202 199 204 206 193 181 176 169 160 153 121 99 162 237 340 349 114 43 339 135 144 140 135 204 298 57 190 172 174 158 164 220 174 175 204 231 183 240 186 256 275 274 299
219 219 214 207 199 199 195 200 187 185 182 172 160 155 133 99 55 246 305 315 24 47 251 109 124 167 131 214 274 154 139 308 143 133 45 254 270 215 208 210 188 106 196 33 33 261 256
218 219 214 210 206 204 194 190 186 182 181 175 163 158 156 127 206 282 330 136 59 173 344 23 242 159 180 178 182 172 156 176 157 142 215 291 237 250 190 230 162 183 149 283 254 203 268
222 218 218 210 207 204 203 192 187 178 176 172 164 156 169 151 100 348 60 103 160 212 233 322 316 142 173 164 216 168 150 185 209 97 143 200 275 185 163 208 172 177 187 198 251 220 283
232 228 222 214 210 204 201 189 188 181 177 168 116 98 135 228 179 21 194 172 212 202 196 235 272 123 297 232 204 177 218 208 200 180 199 187 252 246 186 157 182 156 198 196 261 179 266
252 233 225 222 218 214 200 190 188 184 176 137 111 111 217 151 146 101 220 239 224 217 337 44 188 81 203 350 136 143 234 200 58 178 9 287 270 219 150 123 78 207 148 158 102 246 243
213 247 229 235 219 218 199 189 190 186 167 135 96 141 227 146 105 128 209 224 233 247 55 55 201 208 130 155 143 203 215 337 81 56 98 36 280 298 101 207 196 164 204 182 217 193 265
228 223 235 223 232 216 199 191 187 193 159 140 117 174 220 160 144 204 221 187 243 235 33 228 241 234 202 160 222 262 240 238 124 115 324 212 189 243 249 42 349 316 246 209 230 222 224
238 229 228 231 222 220 201 197 196 192 162 128 142 118 249 197 192 214 215 243 241 245 199 207 225 214 193 200 269 222 238 262 294 24 8 21 244 262 256 208 277 252 259 232 246 270 247
237 231 216 211 239 222 201 211 204 198 171 122 135 158 189 201 150 207 193 220 230 204 234 279 272 2 222 225 217 270 213 325 10 271 200 180 217 249 261 280 289 240 228 222 221 240 252
241 231 229 211 226 255 226 210 201 208 171 118 161 198 205 178 205 192 182 217 220 228 222 201 242 234 232 239 196 235 238 293 290 288 218 191 259 241 252 260 259 259 250 226 219 232 222
240 231 225 222 210 227 239 216 199 183 178 179 151 165 166 138 179 195 210 215 233 206 222 209 225 214 224 237 234 256 292 275 262 298 179 140 275 270 267 259 246 250 246 233 230 240 246
240 234 228 224 226 226 233 213 197 182 176 116 152 130 132 159 158 179 213 223 243 223 251 247 257 257 255 246 241 248 245 260 250 253 246 224 240 250 272 309 351 256 241 221 234 236 246
241 235 229 221 219 225 218 224 211 200 192 146 152 125 125 167 172 196 188 205 231 237 253 268 271 254 248 259 291 257 238 246 240 243 223 225 220 244 269 216 242 282 91 260 240 253 211
233 232 233 230 225 227 214 212 217 207 200 149 146 110 135 132 189 212 210 225 209 195 241 244 252 253 227 253 284 292 262 263 238 234 225 217 219 236 244 228 291 266 203 193 195 264 215
233 229 225 226 226 226 221 208 211 209 207 146 161 125 108 124 222 173 184 204 216 222 264 252 249 237 199 202 222 233 243 252 246 258 227 214 214 212 197 223 242 303 146 133 135 268 159
240 233 228 224 222 218 218 210 201 206 205 159 153 156 102 138 242 156 184 197 165 177 252 281 271 317 199 190 203 224 240 240 251 248 190 201 197 219 223 235 272 190 152 160 161 277 155
228 241 235 227 221 216 210 209 197 199 196 161 117 178 150 150 196 150 173 172 140 199 228 241 335 191 211 200 190 204 229 210 229 212 197 204 208 198 207 222 244 152 121 199 133 131 146
220 230 235 232 216 209 206 195 188 192 191 163 113 127 115 174 266 209 230 208 214 212 50 286 295 289 291 220 205 182 207 205 198 239 180 219 201 189 203 208 120 159 66 107 140 142 160